EW4427 Weather Reports


time (UTC)temp
C
wind
direction
speed
KPH
gust
KPH
rain 1hr
cm
rain 24hr
cm
rain mn
cm
humidity
%
barometer
mb
20260508025047 4 0 0.0 3.2 0.00 0.00 0.00 79 1011.0
20260508024603 4 0 0.0 3.2 0.00 0.00 0.00 79 1010.9
20260508024050 4 0 0.0 3.2 0.00 0.00 0.00 78 1010.9
20260508023546 4 0 0.0 1.6 0.00 0.00 0.00 78 1011.0
20260508023052 4 0 0.0 4.8 0.00 0.00 0.00 77 1010.9
20260508022548 5 0 0.0 4.8 0.00 0.00 0.00 77 1010.7
20260508022043 5 0 0.0 4.8 0.00 0.00 0.00 76 1010.7
20260508021555 5 0 0.0 4.8 0.00 0.00 0.00 75 1010.6
20260508021045 5 38 0.0 4.8 0.00 0.00 0.00 75 1010.6
20260508020545 5 0 0.0 6.4 0.00 0.00 0.00 74 1010.5
20260508020053 5 13 0.0 6.4 0.00 0.00 0.00 73 1010.4
20260508015547 5 30 0.0 6.4 0.00 0.00 0.00 72 1010.4
20260508015048 5 19 1.6 6.4 0.00 0.00 0.00 72 1010.3
20260508014551 5 22 0.0 6.4 0.00 0.00 0.00 71 1010.2
20260508014049 6 0 0.0 4.8 0.00 0.00 0.00 70 1010.2
20260508013546 6 0 0.0 4.8 0.00 0.00 0.00 69 1010.1
20260508013052 6 32 0.0 6.4 0.00 0.00 0.00 68 1010.1
20260508012549 6 0 0.0 6.4 0.00 0.00 0.00 67 1010.1
20260508012047 6 16 0.0 12.9 0.00 0.00 0.00 67 1010.0
20260508011556 7 5 3.2 12.9 0.00 0.00 0.00 66 1010.0
20260508011045 7 33 1.6 8.0 0.00 0.00 0.00 65 1010.0
20260508010548 7 9 0.0 8.0 0.00 0.00 0.00 66 1010.0
20260508010050 7 24 0.0 4.8 0.00 0.00 0.00 65 1009.8
20260508005549 7 0 1.6 6.4 0.00 0.00 0.00 65 1009.6
20260508005042 8 20 0.0 6.4 0.00 0.00 0.00 65 1009.5
20260508004555 8 30 3.2 8.0 0.00 0.00 0.00 64 1009.4
20260508004046 8 0 0.0 8.0 0.00 0.00 0.00 64 1009.3
20260508003542 8 0 1.6 8.0 0.00 0.00 0.00 64 1009.2
20260508003048 8 69 0.0 6.4 0.00 0.00 0.00 64 1009.1
20260508002545 8 85 0.0 6.4 0.00 0.00 0.00 64 1009.2
20260508002049 8 66 0.0 6.4 0.00 0.00 0.00 63 1009.3
20260508001550 8 22 1.6 6.4 0.00 0.00 0.00 63 1009.3
20260508001047 8 0 0.0 4.8 0.00 0.00 0.00 64 1009.2
20260508000546 9 51 0.0 4.8 0.00 0.00 0.00 64 1009.3
20260508000056 9 9 0.0 4.8 0.00 0.00 0.00 64 1009.1
20260507235547 9 0 0.0 8.0 0.00 0.00 0.00 65 1009.1
20260507235045 9 17 3.2 8.0 0.00 0.00 0.00 64 1009.2
20260507234551 9 0 0.0 9.7 0.00 0.00 0.00 64 1009.2
20260507234042 9 22 1.6 9.7 0.00 0.00 0.00 64 1009.2
20260507233542 9 57 1.6 8.0 0.00 0.00 0.00 64 1009.1
20260507233101 10 0 1.6 6.4 0.00 0.00 0.00 64 1009.2
20260507232542 10 58 0.0 6.4 0.00 0.00 0.00 66 1009.2
20260507232042 10 134 0.0 6.4 0.00 0.00 0.00 66 1009.2
20260507231554 10 128 0.0 4.8 0.00 0.00 0.00 65 1009.2
20260507231044 10 138 1.6 6.4 0.00 0.00 0.00 65 1009.2
20260507230544 10 150 1.6 6.4 0.00 0.00 0.00 64 1009.1
20260507230054 10 0 1.6 6.4 0.00 0.00 0.00 66 1009.1
20260507225542 10 60 0.0 6.4 0.00 0.00 0.00 66 1009.2
20260507225045 10 0 0.0 6.4 0.00 0.00 0.00 70 1009.2
20260507224556 10 0 1.6 9.7 0.00 0.00 0.00 67 1009.1
20260507224046 10 0 1.6 9.7 0.00 0.00 0.00 67 1009.0
20260507223545 10 191 4.8 9.7 0.00 0.00 0.00 69 1009.2
20260507223048 10 116 1.6 9.7 0.00 0.00 0.00 66 1009.3
20260507222545 10 119 1.6 9.7 0.00 0.00 0.00 68 1009.2
20260507222042 10 105 1.6 9.7 0.00 0.00 0.00 67 1009.3
20260507221554 10 192 1.6 9.7 0.00 0.00 0.00 67 1009.3
20260507221045 10 93 1.6 9.7 0.00 0.00 0.00 67 1009.4
20260507220542 10 0 1.6 8.0 0.00 0.00 0.00 67 1009.3
20260507220046 9 113 1.6 8.0 0.00 0.00 0.00 65 1009.5
20260507215546 10 153 3.2 12.9 0.00 0.00 0.00 65 1009.5
20260507215043 10 0 1.6 12.9 0.00 0.00 0.00 62 1009.5
20260507214603 10 168 1.6 12.9 0.00 0.00 0.00 62 1009.6
20260507214042 10 122 1.6 9.7 0.00 0.00 0.00 61 1009.5
20260507213543 10 0 1.6 14.5 0.00 0.00 0.00 60 1009.4
20260507213101 10 150 1.6 14.5 0.00 0.00 0.00 59 1009.5
20260507212548 10 146 3.2 12.9 0.00 0.00 0.00 57 1009.4
20260507212044 10 140 1.6 16.1 0.00 0.00 0.00 61 1009.6
20260507211551 10 80 3.2 16.1 0.00 0.00 0.00 57 1009.6
20260507211042 10 129 3.2 16.1 0.00 0.00 0.00 55 1009.6
20260507210545 11 190 3.2 16.1 0.00 0.00 0.00 57 1009.5
20260507210051 11 161 1.6 12.9 0.00 0.00 0.00 56 1009.8
20260507205546 11 149 3.2 12.9 0.00 0.00 0.00 54 1009.7
20260507205043 10 193 1.6 14.5 0.00 0.00 0.00 57 1009.7
20260507204558 10 0 4.8 14.5 0.00 0.00 0.00 53 1009.7
20260507204046 10 165 1.6 12.9 0.00 0.00 0.00 56 1009.6
20260507203543 10 0 1.6 9.7 0.00 0.00 0.00 59 1009.8
20260507203058 10 102 3.2 12.9 0.00 0.00 0.00 55 1009.8
20260507202549 11 5 3.2 12.9 0.00 0.00 0.00 56 1010.0
20260507202047 10 0 1.6 9.7 0.00 0.00 0.00 62 1010.2
20260507201603 10 82 0.0 9.7 0.00 0.00 0.00 65 1010.4
20260507201048 9 80 1.6 19.3 0.00 0.00 0.00 61 1010.6
20260507200550 10 31 4.8 19.3 0.00 0.00 0.00 59 1010.8
20260507200052 10 59 3.2 14.5 0.00 0.00 0.00 54 1010.6
20260507195547 10 0 1.6 12.9 0.00 0.00 0.00 54 1010.6
20260507195047 10 21 1.6 12.9 0.00 0.00 0.00 54 1010.6
20260507194618 10 43 4.8 12.9 0.00 0.00 0.00 54 1010.6
20260507194046 10 28 4.8 16.1 0.00 0.00 0.00 54 1010.2
20260507193543 10 0 4.8 16.1 0.00 0.00 0.00 55 1010.0
20260507193052 10 119 3.2 14.5 0.00 0.00 0.00 54 1010.0
20260507192543 10 124 3.2 12.9 0.00 0.00 0.00 54 1009.9
20260507192042 10 134 1.6 11.3 0.00 0.00 0.00 56 1010.0
20260507191556 11 107 4.8 11.3 0.00 0.00 0.00 53 1010.1
20260507191043 11 96 3.2 11.3 0.00 0.00 0.00 55 1010.2
20260507190542 11 193 1.6 14.5 0.00 0.00 0.00 55 1010.1
20260507190056 11 65 3.2 14.5 0.00 0.00 0.00 52 1010.1
20260507185547 11 120 3.2 14.5 0.00 0.00 0.00 51 1010.4
20260507185047 12 0 3.2 9.7 0.00 0.00 0.00 51 1010.4
20260507184553 13 113 3.2 8.0 0.00 0.00 0.00 48 1010.7
20260507184046 12 0 3.2 8.0 0.00 0.00 0.00 46 1010.8
20260507183548 12 202 0.0 6.4 0.00 0.00 0.00 45 1010.6
20260507183059 12 0 0.0 12.9 0.00 0.00 0.00 46 1010.7
20260507182547 12 192 1.6 12.9 0.00 0.00 0.00 45 1010.7
20260507182043 12 188 6.4 19.3 0.00 0.00 0.00 50 1010.8
20260507181557 12 199 1.6 19.3 0.00 0.00 0.00 51 1010.9
20260507181047 12 191 9.7 14.5 0.00 0.00 0.00 50 1011.1
20260507180543 12 209 0.0 8.0 0.00 0.00 0.00 50 1011.1
20260507180058 11 0 0.0 12.9 0.00 0.00 0.00 50 1011.1
20260507175542 11 0 1.6 17.7 0.00 0.00 0.00 49 1011.3
20260507175044 12 238 3.2 17.7 0.00 0.00 0.00 47 1011.6
20260507174619 12 239 4.8 11.3 0.00 0.00 0.00 49 1011.4
20260507174044 12 237 4.8 11.3 0.00 0.00 0.00 46 1011.3
20260507173542 12 178 4.8 11.3 0.00 0.00 0.00 46 1011.4
20260507173122 12 0 0.0 12.9 0.00 0.00 0.00 49 1011.4
20260507172545 12 171 0.0 12.9 0.00 0.00 0.00 46 1011.6
20260507172043 12 190 8.0 12.9 0.00 0.00 0.00 45 1011.6
20260507171601 12 191 0.0 9.7 0.00 0.00 0.00 47 1011.7
20260507171043 11 0 1.6 12.9 0.00 0.00 0.00 42 1011.8
20260507170546 12 180 3.2 14.5 0.00 0.00 0.00 50 1011.9
20260507170110 11 185 8.0 14.5 0.00 0.00 0.00 55 1012.1
20260507165543 11 186 6.4 12.9 0.00 0.00 0.00 50 1012.2
20260507165043 11 203 3.2 9.7 0.00 0.00 0.00 51 1012.2
20260507164556 11 194 1.6 9.7 0.00 0.00 0.00 49 1012.1
20260507164043 11 189 3.2 9.7 0.00 0.00 0.00 49 1012.3
20260507163542 11 0 4.8 11.3 0.00 0.00 0.00 51 1012.3
20260507163049 11 180 1.6 14.5 0.00 0.00 0.00 47 1012.4
20260507162543 10 184 6.4 14.5 0.00 0.00 0.00 49 1012.5
20260507162045 11 183 6.4 14.5 0.00 0.00 0.00 53 1012.7
20260507161603 10 200 6.4 11.3 0.00 0.00 0.00 54 1012.7
20260507161043 10 192 4.8 11.3 0.00 0.00 0.00 47 1012.8
20260507160543 10 189 1.6 9.7 0.00 0.00 0.00 52 1012.9
20260507160052 10 0 0.0 9.7 0.00 0.00 0.00 45 1012.9
20260507155544 9 221 4.8 9.7 0.00 0.00 0.00 52 1013.0
20260507155044 9 183 1.6 11.3 0.00 0.00 0.00 49 1013.1
20260507154551 9 183 4.8 11.3 0.00 0.00 0.00 54 1013.1
20260507154041 9 221 1.6 9.7 0.00 0.00 0.00 52 1013.1
20260507153543 9 0 3.2 6.4 0.00 0.00 0.00 53 1013.3
20260507153057 10 202 1.6 6.4 0.00 0.00 0.00 54 1013.4
20260507152542 9 36 1.6 9.7 0.00 0.00 0.00 52 1013.6
20260507152042 9 201 1.6 9.7 0.00 0.00 0.00 55 1013.6
20260507151556 8 188 3.2 9.7 0.00 0.00 0.00 53 1013.6
20260507151041 8 197 1.6 8.0 0.00 0.00 0.00 58 1013.7
20260507150543 8 196 0.0 8.0 0.00 0.00 0.00 52 1013.9
20260507150100 9 0 3.2 8.0 0.00 0.00 0.00 53 1013.9
20260507145543 8 47 0.0 9.7 0.00 0.00 0.00 55 1013.9
20260507145045 8 186 4.8 9.7 0.00 0.00 0.00 55 1014.0
20260507144548 8 213 1.6 8.0 0.00 0.00 0.00 56 1014.0
20260507144047 8 172 1.6 8.0 0.00 0.00 0.00 56 1014.1
20260507143542 8 0 1.6 8.0 0.00 0.00 0.00 59 1014.2
20260507143059 7 213 1.6 8.0 0.00 0.00 0.00 59 1014.3
20260507142547 7 215 3.2 8.0 0.00 0.00 0.00 59 1014.4
20260507142046 7 200 3.2 8.0 0.00 0.00 0.00 58 1014.5
20260507141619 7 198 0.0 6.4 0.00 0.00 0.00 57 1014.6
20260507141051 7 0 1.6 6.4 0.00 0.00 0.00 56 1014.6
20260507140547 7 227 1.6 6.4 0.00 0.00 0.00 59 1014.7
20260507140052 7 0 1.6 6.4 0.00 0.00 0.00 59 1014.5
20260507135546 7 213 1.6 8.0 0.00 0.00 0.00 61 1014.6
20260507135046 7 194 3.2 8.0 0.00 0.00 0.00 61 1014.7
20260507134549 7 207 0.0 4.8 0.00 0.00 0.00 60 1014.8
20260507134044 6 0 1.6 4.8 0.00 0.00 0.00 64 1014.8
20260507133546 6 0 1.6 4.8 0.00 0.00 0.00 64 1014.6
20260507133048 6 0 0.0 4.8 0.00 0.00 0.00 65 1014.8
20260507132545 6 192 0.0 1.6 0.00 0.00 0.00 68 1014.6
20260507132042 5 0 0.0 1.6 0.00 0.00 0.00 68 1014.8
20260507131551 5 0 0.0 1.6 0.00 0.00 0.00 68 1014.9
20260507131046 5 0 0.0 3.2 0.00 0.00 0.00 68 1014.9
20260507130546 5 0 0.0 3.2 0.00 0.00 0.00 69 1014.9
20260507130053 4 0 0.0 3.2 0.00 0.00 0.00 68 1014.9
20260507125548 4 0 0.0 4.8 0.00 0.00 0.00 71 1014.7
20260507125044 4 0 0.0 4.8 0.00 0.00 0.00 73 1014.7
20260507124552 3 0 0.0 4.8 0.00 0.00 0.00 72 1014.7
20260507124044 3 0 0.0 4.8 0.00 0.00 0.00 72 1014.7
20260507123544 2 200 0.0 0.0 0.00 0.00 0.00 74 1014.6
20260507123053 2 0 0.0 0.0 0.00 0.00 0.00 76 1014.6
20260507122546 2 0 0.0 1.6 0.00 0.00 0.00 76 1014.6
20260507122046 2 0 0.0 3.2 0.00 0.00 0.00 77 1014.5
20260507121550 2 0 0.0 3.2 0.00 0.00 0.00 77 1014.5
20260507121044 1 0 0.0 3.2 0.00 0.00 0.00 78 1014.5
20260507120545 1 0 0.0 1.6 0.00 0.00 0.00 78 1014.5
20260507115546 1 0 0.0 3.2 0.00 0.00 0.00 78 1014.4
20260507115049 1 224 0.0 3.2 0.00 0.00 0.00 78 1014.3
20260507114553 0 0 0.0 0.0 0.00 0.00 0.00 77 1014.1
20260507114047 0 0 0.0 0.0 0.00 0.00 0.00 76 1014.2
20260507113546 0 0 0.0 0.0 0.00 0.00 0.00 76 1014.1
20260507113053 0 0 0.0 0.0 0.00 0.00 0.00 76 1014.1
20260507112547 0 0 0.0 0.0 0.00 0.00 0.00 76 1014.1
20260507112047 0 0 0.0 0.0 0.00 0.00 0.00 76 1014.1
20260507111551 0 0 0.0 0.0 0.00 0.00 0.00 75 1014.0
20260507111047 0 0 0.0 1.6 0.00 0.00 0.00 75 1014.0
20260507110547 0 0 0.0 1.6 0.00 0.00 0.00 75 1014.0
20260507110056 0 0 0.0 0.0 0.00 0.00 0.00 74 1014.0
20260507105546 0 0 0.0 0.0 0.00 0.00 0.00 74 1013.9
20260507105046 0 0 0.0 0.0 0.00 0.00 0.00 74 1014.0
20260507104550 0 0 0.0 0.0 0.00 0.00 0.00 74 1014.0
20260507104046 0 0 0.0 0.0 0.00 0.00 0.00 74 1014.1
20260507103546 0 0 0.0 0.0 0.00 0.00 0.00 74 1014.0
20260507103053 0 0 0.0 0.0 0.00 0.00 0.00 74 1013.9
20260507102545 0 0 0.0 0.0 0.00 0.00 0.00 74 1014.0
20260507102046 0 0 0.0 0.0 0.00 0.00 0.00 73 1014.1
20260507101600 0 0 0.0 0.0 0.00 0.00 0.00 73 1014.0
20260507101045 0 0 0.0 0.0 0.00 0.00 0.00 73 1014.0
20260507100545 0 0 0.0 0.0 0.00 0.00 0.00 73 1014.1
20260507100059 0 0 0.0 0.0 0.00 0.00 0.00 73 1014.1
20260507095547 0 0 0.0 0.0 0.00 0.00 0.00 73 1014.1
20260507095049 0 0 0.0 0.0 0.00 0.00 0.00 73 1014.0
20260507094557 0 0 0.0 0.0 0.00 0.00 0.00 73 1014.0
20260507094046 0 0 0.0 0.0 0.00 0.00 0.00 73 1014.1
20260507093547 0 0 0.0 0.0 0.00 0.00 0.00 72 1014.0
20260507093052 0 0 0.0 0.0 0.00 0.00 0.00 72 1014.0
20260507092546 0 0 0.0 0.0 0.00 0.00 0.00 72 1014.0
20260507092045 0 0 0.0 0.0 0.00 0.00 0.00 72 1014.0
20260507091554 0 0 0.0 0.0 0.00 0.00 0.00 72 1014.0
20260507091046 0 0 0.0 0.0 0.00 0.00 0.00 72 1014.0
20260507090546 0 0 0.0 0.0 0.00 0.00 0.00 71 1014.0
20260507090100 1 0 0.0 0.0 0.00 0.00 0.00 71 1013.9
20260507085545 1 0 0.0 0.0 0.00 0.00 0.00 71 1014.0
20260507085047 1 0 0.0 0.0 0.00 0.00 0.00 71 1014.0
20260507084601 1 0 0.0 0.0 0.00 0.00 0.00 71 1014.0
20260507084046 1 0 0.0 0.0 0.00 0.00 0.00 71 1014.0
20260507083545 1 0 0.0 0.0 0.00 0.00 0.00 71 1014.0
20260507083056 1 0 0.0 0.0 0.00 0.00 0.00 71 1014.1
20260507082548 1 0 0.0 0.0 0.00 0.00 0.00 71 1014.0
20260507082046 1 0 0.0 0.0 0.00 0.00 0.00 71 1014.0
20260507081551 1 0 0.0 0.0 0.00 0.00 0.00 71 1014.1
20260507081044 1 0 0.0 0.0 0.00 0.00 0.00 71 1014.0
20260507080544 1 0 0.0 0.0 0.00 0.00 0.00 70 1014.0
20260507080056 1 0 0.0 0.0 0.00 0.00 0.00 70 1014.0
20260507075546 1 0 0.0 0.0 0.00 0.00 0.00 69 1014.0
20260507075044 1 0 0.0 0.0 0.00 0.00 0.00 69 1013.9
20260507074553 1 0 0.0 0.0 0.00 0.00 0.00 69 1014.2
20260507074043 1 0 0.0 0.0 0.00 0.00 0.00 69 1014.1
20260507073548 1 0 0.0 0.0 0.00 0.00 0.00 69 1014.1
20260507073121 1 0 0.0 0.0 0.00 0.00 0.00 68 1014.2
20260507072544 1 0 0.0 0.0 0.00 0.00 0.00 68 1014.3
20260507072044 1 0 0.0 0.0 0.00 0.00 0.00 68 1014.2
20260507071553 1 0 0.0 0.0 0.00 0.00 0.00 68 1014.2
20260507071045 1 0 0.0 0.0 0.00 0.00 0.00 68 1014.2
20260507070544 1 0 0.0 0.0 0.00 0.00 0.00 68 1014.4
20260507070051 1 0 0.0 0.0 0.00 0.00 0.00 68 1014.3
20260507065546 1 0 0.0 0.0 0.00 0.00 0.00 68 1014.4
20260507065044 1 0 0.0 0.0 0.00 0.00 0.00 67 1014.4
20260507064608 1 0 0.0 0.0 0.00 0.00 0.00 67 1014.4
20260507064044 1 0 0.0 0.0 0.00 0.00 0.00 67 1014.5
20260507063547 1 0 0.0 0.0 0.00 0.00 0.00 68 1014.7
20260507063057 1 0 0.0 0.0 0.00 0.00 0.00 68 1014.8
20260507062543 1 0 0.0 0.0 0.00 0.00 0.00 68 1014.9
20260507062043 1 0 0.0 0.0 0.00 0.00 0.00 68 1014.9
20260507061549 1 0 0.0 0.0 0.00 0.00 0.00 68 1014.9
20260507061042 1 0 0.0 0.0 0.00 0.00 0.00 68 1014.8
20260507060544 1 0 0.0 0.0 0.00 0.00 0.00 69 1014.8
20260507060051 1 0 0.0 0.0 0.00 0.00 0.00 69 1014.8
20260507055543 1 0 0.0 0.0 0.00 0.00 0.00 69 1014.8
20260507055044 1 0 0.0 0.0 0.00 0.00 0.00 69 1014.7
20260507054547 1 0 0.0 0.0 0.00 0.00 0.00 69 1014.8
20260507054043 1 0 0.0 0.0 0.00 0.00 0.00 69 1014.8
20260507053544 2 0 0.0 0.0 0.00 0.00 0.00 69 1015.0
20260507053050 2 0 0.0 0.0 0.00 0.00 0.00 69 1014.9
20260507052543 2 0 0.0 0.0 0.00 0.00 0.00 68 1014.9
20260507052043 2 0 0.0 0.0 0.00 0.00 0.00 68 1014.7
20260507051551 2 0 0.0 0.0 0.00 0.00 0.00 68 1014.9
20260507051044 2 0 0.0 0.0 0.00 0.00 0.00 68 1014.8
20260507050543 2 0 0.0 0.0 0.00 0.00 0.00 67 1015.0
20260507050056 2 0 0.0 0.0 0.00 0.00 0.00 67 1014.9
20260507045544 2 0 0.0 0.0 0.00 0.00 0.00 67 1014.9
20260507045043 2 0 0.0 0.0 0.00 0.00 0.00 67 1015.0
20260507044552 2 0 0.0 0.0 0.00 0.00 0.00 67 1014.9
20260507044043 2 0 0.0 0.0 0.00 0.00 0.00 67 1014.9
20260507043543 3 0 0.0 0.0 0.00 0.00 0.00 66 1014.9
20260507043049 3 0 0.0 0.0 0.00 0.00 0.00 65 1014.9
20260507042543 3 0 0.0 0.0 0.00 0.00 0.00 65 1014.9
20260507042043 3 0 0.0 0.0 0.00 0.00 0.00 64 1014.7
20260507041548 3 0 0.0 0.0 0.00 0.00 0.00 64 1014.9
20260507041047 3 0 0.0 0.0 0.00 0.00 0.00 63 1014.9
20260507040547 3 0 0.0 3.2 0.00 0.00 0.00 63 1014.9
20260507040056 3 0 0.0 3.2 0.00 0.00 0.00 62 1015.0
20260507035544 3 0 0.0 0.0 0.00 0.00 0.00 61 1015.1
20260507035043 4 0 0.0 0.0 0.00 0.00 0.00 61 1015.1
20260507034615 4 0 0.0 0.0 0.00 0.00 0.00 60 1015.1
20260507034044 4 0 0.0 0.0 0.00 0.00 0.00 61 1015.2
20260507033543 4 0 0.0 1.6 0.00 0.00 0.00 60 1015.2
20260507033103 4 0 0.0 1.6 0.00 0.00 0.00 60 1015.0
20260507032546 4 0 0.0 1.6 0.00 0.00 0.00 59 1015.1
20260507032046 5 0 0.0 4.8 0.00 0.00 0.00 60 1015.1
20260507031552 5 0 0.0 4.8 0.00 0.00 0.00 59 1015.0
20260507031044 5 0 0.0 0.0 0.00 0.00 0.00 59 1015.0
20260507030546 5 0 0.0 6.4 0.00 0.00 0.00 59 1015.0
20260507030054 5 0 0.0 6.4 0.00 0.00 0.00 58 1015.1
20260507025543 5 0 0.0 3.2 0.00 0.00 0.00 58 1015.0